Regional Weather Roundup
Issued by NWS

Home | Current Version | Previous Version | Graphics & Text | Print | Product List | Glossary On
Versions: 1 2 3 4 5 6 7 8 9 10 11 12 13 14 15 16 17 18 19 20 21 22 23 24 25 26 27 28 29 30 31 32 33 34 35 36 37 38 39 40 41 42 43 44 45 46 47 48 49 50
779
ASUS43 KDMX 130306
RWRIA

WEATHER ROUNDUP FOR IOWA
NATIONAL WEATHER SERVICE DES MOINES IA
900 PM CST TUE DEC 12 2017

NOTE: "FAIR" INDICATES FEW OR NO CLOUDS BELOW 12,000 FEET WITH NO
SIGNIFICANT WEATHER AND/OR OBSTRUCTIONS TO VISIBILITY.

* - THESE STATIONS ARE NOT NWS STATIONS...THUS NOT UNDER NWS
QUALITY CONTROL.  THEY ALSO DO NOT REPORT WEATHER SUCH
AS PRECIPITATION OR FOG.

IAZ001>003-012>014-020>022-031>034-043>046-130400-
   NORTHWEST IOWA

CITY           SKY/WX    TMP DP  RH WIND       PRES   REMARKS
CARROLL *      CLEAR     32  25  74 SW20      29.84F WCI  20
CHEROKEE *     CLEAR     30  26  86 SW8       29.79F WCI  22
DENISON *      CLEAR     30  25  80 S8        29.86F WCI  23
LE MARS *      CLEAR     32  25  74 S8        29.78F WCI  25
ORANGE CITY *  CLEAR     30  28  93 SW8       29.76F WCI  23
SHELDON *      CLEAR     32  27  80 SW12      29.74F WCI  23
SIOUX CITY     CLEAR     26  21  81 E7        29.80F WCI  18
SPENCER        CLEAR     31  24  75 SW12      29.77F WCI  22
STORM LAKE *   CLEAR     32  25  74 SW16G22   29.79F WCI  21
$$

IAZ055>058-069>071-079>083-090>094-130400-
   SOUTHWEST IOWA

CITY           SKY/WX    TMP DP  RH WIND       PRES   REMARKS
ATLANTIC *     CLOUDY    25  21  86 SW8       29.91F WCI  16
AUDUBON *      CLEAR     30  25  80 S12       29.88F WCI  21
CLARINDA *       N/A     27  21  80 S6        29.96F WCI  20
COUNCIL BLFS * CLOUDY    34  28  80 S9        29.89F WCI  26
CRESTON *      CLEAR     28  21  74 S14       29.93F WCI  17
HARLAN  *      CLEAR     28  25  86 S9        29.91F WCI  20
LAMONI         CLOUDY    26  18  71 S8        29.96F WCI  18
RED OAK *      CLEAR     28  25  86 S7        29.93F WCI  21
SHENANDOAH *   CLEAR     32  27  80 S6        29.95F WCI  26
$$

IAZ047>049-059>061-072>074-084-130400-
   CENTRAL IOWA

CITY           SKY/WX    TMP DP  RH WIND       PRES   REMARKS
AMES           MOCLDY    28  21  75 S7        29.90F WCI  21
ANKENY *       CLOUDY    30  21  69 S7        29.93F WCI  23
BOONE *        PTCLDY    28  21  74 SW13      29.87F WCI  18
CHARITON *     CLEAR     27  18  69 S10       29.95F WCI  17
DES MOINES     CLEAR     30  20  66 S10       29.93F WCI  21
GRINNELL*      CLOUDY    25  13  61 S10       29.94F WCI  14
KNOXVILLE *    CLOUDY    28  18  64 SW12      29.93F WCI  18
MARSHALLTOWN   CLOUDY    28  18  66 S13       29.90F WCI  17
NEWTON *       CLOUDY    27  18  69 S8        29.93F WCI  18
PELLA *        CLOUDY    24  15  68 S6        29.96F WCI  17
PERRY *          N/A     24  18  75 S8        29.89F WCI  16
$$

IAZ004>006-015-016-023>025-035-036-130400-
   NORTH CENTRAL IOWA

CITY           SKY/WX    TMP DP  RH WIND       PRES   REMARKS
ALGONA *       CLEAR     27  23  86 S13       29.80F WCI  16
CLARION *      CLOUDY    30  21  69 S10       29.85F WCI  21
ESTHERVILLE    CLEAR     28  24  85 S14       29.76F WCI  17
FORT DODGE *   CLEAR     28  21  75 S13       29.84F WCI  17
MASON CITY     CLOUDY    32  21  64 SW17      29.83F WCI  21
FOREST CITY *  CLOUDY    32  25  74 SW14      29.81F WCI  22
WEBSTER CITY * MOCLDY    30  21  69 SW14      29.84F WCI  20
IOWA FALLS *   CLOUDY    31  22  68 S13       29.89F WCI  21
$$

IAZ007>011-017>019-026>030-037>042-050>054-066-130400-
   NORTHEAST IOWA

CITY           SKY/WX    TMP DP  RH WIND       PRES   REMARKS
CEDAR RAPIDS   CLOUDY    24  10  55 S5        29.95F WCI  18
CHARLES CITY * CLOUDY    27  18  69 S12       29.87F WCI  16
CLINTON *      CLOUDY    23  12  62 SW8       29.98F WCI  14
DECORAH *      CLOUDY    25  16  68 S8G14     29.85F WCI  16
DUBUQUE        CLOUDY    22  12  65 SW10      29.92F WCI  11
MONTICELLO *   CLOUDY    27   7  43 SW6       29.94F WCI  20
OELWEIN *      CLOUDY    27  14  59 S12       29.90F WCI  16
WATERLOO       CLOUDY    27  14  58 S10       29.90F WCI  17
$$

IAZ064-065-067-068-078-130400-
   EAST CENTRAL IOWA

CITY           SKY/WX    TMP DP  RH WIND       PRES   REMARKS
DAVENPORT      CLEAR     23   6  48 SW7       30.00F WCI  15
IOWA CITY      CLOUDY    25   8  48 CALM      30.00F
MT. PLEASANT * CLOUDY    22   4  45 S8        30.00F WCI  13
MUSCATINE *    CLOUDY    25   7  46 S7        30.01F WCI  17
QUAD CITIES    CLEAR     24   5  44 SW5       29.99F WCI  18
$$

IAZ062-063-075>077-085>089-095>099-130400-
   SOUTHEAST IOWA

CITY           SKY/WX    TMP DP  RH WIND       PRES   REMARKS
BURLINGTON     CLOUDY    24   6  46 SW6       30.00F WCI  17
FAIRFIELD *    MOCLDY    25   5  42 S7        29.98F WCI  17
FORT MADISON * CLOUDY    27   5  39 SW7       30.01F WCI  19
KEOKUK *       CLOUDY    25   5  42 SW7       30.01F WCI  17
OSKALOOSA *    MOCLDY    25  13  61 SW8       29.97F WCI  16
OTTUMWA        CLOUDY    26  13  57 S8        29.97F WCI  18
WASHINGTON *   CLOUDY    21   7  53 S8        29.99F WCI  12
$$

ABBREVIATIONS USED IN REMARKS
   TC - TEMPERATURES IN CELSIUS
  WCI - WIND CHILL INDEX
   HX - HEAT INDEX
  VSB - VISIBILITY
$$





USA.gov is the U.S. government's official web portal to all federal, state and local government web resources and services.